SALSAT

Last updated on Sun Apr 12 2026 00:03:15 GMT+0000 (Coordinated Universal Time)

1 46495U 20068K 26101.47097471 .00007398 00000+0 26658-3 0 9999 2 46495 97.8867 100.5273 0010330 166.3572 193.7947 15.28835172305167
UTC large
Height (km)
Speed (km/s)
/
Latitude / Longitude
Inclination (degrees)
Orbital Period (minutes)
Azimuth
Elevation
Range (km)
Doppler Factor

Next 0 passes for location: London (51.5072 / 0.1276)

Sorry there are no passes over London.
SALSAT